Location: �perlecques
(50.8057°N, 2.1521°E)
Time: 13:10:57
(UTC+00:00)

Vanguard 1 Rocket - Pass Details

Date: 01 August 2021
Orbit: 650 x 4226 km, 34.3° (Epoch: 23 September)

Event Time Altitude Azimuth Distance (km) Brightness Sun altitude
Rises 06:47:08 0° 187° (S) 8,397 12.2 21.5°
Reaches altitude 10° 06:57:55 10° 168° (SSE) 6,959 12.1 23.2°
Maximum altitude 07:07:01 14° 143° (SE) 5,975 12.2 24.7°
Drops below altitude 10° 07:14:32 10° 118° (ESE) 5,638 12.7 25.9°
Sets 07:21:06 0° 96° (E) 5,913 12.9 26.9°
